Location: Recife
(8.0585°S, 34.8848°W)
Time: 12:08:13
(UTC-03:00)

Transit 4A - Pass Details

Date: 15 April 2026
Orbit: 861 x 980 km, 66.8° (Epoch: 12 May)

Event Time Altitude Azimuth Distance (km) Brightness Sun altitude
Rises 11:39:32 0° 185° (S) 3,443 10.7 71.4°
Reaches altitude 10° 11:42:12 10° 176° (S) 2,506 10.1 71.2°
Maximum altitude 11:47:27 36° 111° (ESE) 1,360 9.2 70.7°
Drops below altitude 10° 11:52:44 10° 46° (NE) 2,533 10.4 70.2°
Sets 11:55:26 0° 38° (NE) 3,484 11.0 69.9°
